Location: G�rlitz
(51.1670°N, 15.0000°E)
Time: 20:25:11
(UTC+02:00)

MOZHAYETS 4 - Visible Passes

Search period start: 11 April 2026 00:00
Search period end: 21 April 2026 00:00
Orbit: 642 x 659 km, 98.3° (Epoch: 11 April)

Date Brightness Start Highest point End Pass type
(mag) Time Alt. Az. Time Alt. Az. Time Alt. Az.
11 Apr 10.3 04:42:44 10° ESE 04:46:18 24° ENE 04:49:52 10° N visible
12 Apr 9.4 05:08:35 10° SE 05:12:43 38° ENE 05:16:51 10° N visible
13 Apr 11.3 04:02:00 10° ENE 04:03:24 11° NE 04:04:47 10° NNE visible
13 Apr 10.8 20:35:19 10° NNW 20:38:32 20° WNW 20:41:43 10° WSW visible
14 Apr 10.8 04:26:41 10° E 04:29:40 18° ENE 04:32:38 10° NNE visible
14 Apr 11.2 21:02:53 10° NNW 21:04:49 13° NW 21:06:44 10° WNW visible
15 Apr 10.1 04:52:13 10° ESE 04:56:01 28° ENE 04:59:48 10° N visible
16 Apr 9.0 05:18:12 10° SE 05:22:27 45° ENE 05:26:44 10° N visible
17 Apr 11.1 04:10:57 10° E 04:13:03 13° NE 04:15:09 10° NNE visible
17 Apr 10.9 20:45:20 10° NNW 20:48:12 17° WNW 20:51:03 10° W visible
18 Apr 10.6 04:36:03 10° ESE 04:39:20 21° ENE 04:42:38 10° NNE visible
18 Apr 11.5 21:13:21 10° NW 21:14:27 11° NW 21:15:32 10° WNW visible
19 Apr 9.8 05:01:45 10° SE 05:05:43 33° ENE 05:09:42 10° N visible
